Home   Weather   Suzhou   Past weeks

Flag for China Past Weather in Suzhou, Jiangsu, China — Yesterday and Last 2 Weeks

66 °F

Passing clouds.

Feels Like: 66 °F
Forecast: 64 / 69 °F
Wind: 3 mph from East

Location: Shanghai Hongqiao Airport

Current Time: Oct 25, 2016 at 9:49:08 PM

Latest Report: Oct 25, 2016 at 9:00 PM

Visibility: 5 mi

Pressure: 30.01 "Hg

Humidity: 78%

Dew Point: 59 °F

Location of SuzhouLocation

Past Weather in Suzhou — Graph


Suzhou Temperature Yesterday

Maximum temperature yesterday: 79 °F (at 1:30 PM)
Minimum temperature yesterday: 64 °F (at 2:30 AM)
Average temperature yesterday: 72 °F

High & Low Weather Summary for the Past Weeks

High82 °F (Oct 16, 2:00 PM)100% (Oct 21, 3:00 AM)30.21 "Hg (Oct 21, 3:00 AM)
Low61 °F (Oct 11, 12:30 AM)36% (Oct 11, 1:30 PM)29.68 "Hg (Oct 22, 5:30 PM)
Average71 °F79%30.02 "Hg
* Reported Oct 10 8:00 PM — Oct 25 8:30 PM, Suzhou, Weather by CustomWeather, © 2016

Note: Actual official high and low records may vary slightly from our data, if they occured in-between our weather recording intervals... More about our weather records


Suzhou Weather History for the Previous 24 Hours

Scroll right to see more
Time TempWeatherWind HumidityBarometerVisibility
8:30 PM
Tue, Oct 25
66 °FPassing clouds.3 mph78%30.04 "Hg5 mi
8:00 PM66 °FPassing clouds.3 mph78%30.04 "Hg4 mi
7:30 PM66 °FPassing clouds.3 mph78%30.04 "Hg4 mi
7:00 PM66 °FPassing clouds.3 mph78%30.01 "Hg4 mi
6:30 PM64 °FPassing clouds.3 mph83%30.01 "Hg4 mi
6:00 PM64 °FPassing clouds.3 mph83%30.01 "Hg4 mi
5:30 PM64 °FPassing clouds.8 mph83%30.01 "Hg4 mi
5:00 PM64 °FPartly sunny.8 mph83%29.98 "Hg5 mi
4:30 PM64 °FLight rain. Partly sunny.6 mph83%29.98 "Hg5 mi
4:00 PM64 °FPartly sunny.8 mph78%29.98 "Hg5 mi
3:30 PM66 °FPartly sunny.8 mph73%29.98 "Hg5 mi
3:00 PM66 °FPartly sunny.8 mph73%29.98 "Hg5 mi
2:30 PM66 °FPartly sunny.8 mph78%29.98 "Hg5 mi
2:00 PM68 °FPartly sunny.10 mph73%29.98 "Hg5 mi
1:30 PM68 °FPartly sunny.8 mph73%29.95 "Hg5 mi
1:00 PM68 °FPartly sunny.8 mph73%29.98 "Hg5 mi
12:30 PM68 °FPartly sunny.8 mph73%29.98 "Hg5 mi
12:00 PM68 °FPartly sunny.10 mph73%29.98 "Hg5 mi
11:30 AM68 °FPartly sunny.15 mph78%29.98 "Hg5 mi
11:00 AM68 °FPartly sunny.13 mph73%29.98 "Hg5 mi
10:30 AM68 °FPartly sunny.10 mph73%29.98 "Hg5 mi
10:00 AM66 °FPartly sunny.13 mph78%30.01 "Hg5 mi
9:30 AM66 °FPartly sunny.13 mph78%30.01 "Hg5 mi
9:00 AM64 °FPartly sunny.15 mph83%29.98 "Hg4 mi
8:30 AM64 °FPartly sunny.8 mph88%29.98 "Hg4 mi
8:00 AM64 °FFog.17 mph88%29.98 "Hg3 mi
7:30 AM66 °FFog.17 mph94%29.95 "Hg3 mi
7:00 AM72 °FScattered clouds.3 mph88%29.92 "Hg4 mi
6:30 AM70 °FPassing clouds.3 mph94%29.92 "HgN/A
6:00 AM70 °FPassing clouds.3 mph94%29.89 "HgN/A
5:30 AM72 °FPassing clouds.6 mph88%29.92 "HgN/A
5:00 AM72 °FClear.3 mph88%29.89 "Hg10 mi
4:30 AM70 °FClear.3 mph94%29.89 "Hg10 mi
4:00 AM72 °FClear.6 mph88%29.86 "Hg10 mi
3:30 AM72 °FClear.6 mph88%29.86 "Hg10 mi
3:00 AM72 °FClear.8 mph88%29.86 "Hg10 mi
2:30 AM72 °FPassing clouds.8 mph88%29.86 "HgN/A
2:00 AM72 °FPassing clouds.8 mph88%29.86 "HgN/A
1:30 AM73 °FClear.10 mph83%29.86 "Hg10 mi
1:00 AM73 °FClear.10 mph83%29.86 "Hg10 mi
12:30 AM73 °FClear.10 mph83%29.86 "Hg10 mi
12:00 AM73 °FClear.10 mph83%29.89 "Hg10 mi
11:30 PM
Mon, Oct 24
73 °FClear.10 mph83%29.89 "Hg10 mi
11:00 PM73 °FClear.8 mph83%29.89 "Hg10 mi
10:30 PM72 °FClear.10 mph88%29.89 "Hg10 mi
10:00 PM73 °FClear.10 mph83%29.92 "Hg10 mi
9:30 PM73 °FClear.13 mph83%29.92 "Hg10 mi
9:00 PM73 °FPassing clouds.10 mph83%29.92 "HgN/A
Weather by CustomWeather, © 2016

See weather overviewHow to use our weather pages